Погода Агинское

Погода Агинское : погода сейчас, прогноз погоды и архив. Всё, что Вы хотите узнать о погоде Агинское!

Хотите узнать прогноз погоды Агинское? Тогда Вам сюда: Погода Агинское

Поиск расширенной информации на нашем сайте:

Другие новости

Новости СМИ2

Главная страница сайта

Новости сайта

03.07.2017

Напоминаем, что на нашем специализированном сайте Метеоцентр.Азия вы можете получить высокодетализированные автоматические прогнозы погоды по пунктам России, СНГ и мира в авиационном формате (включающие направление и скорость ветра, видимость, явления погоды, количество и форму облачности, нижнюю и верхнюю границу облачности).

Рекомендуем: Сравнить цены на полиграфические и дизайнерские услуги www.poli33.ru.

Погода Агинское - сегодня

Время (UTC), дата Ветер
(°,м/с) 
Видим.   Явления Облачность Т
(°С)
Тd
(°С)
f(%) Тe
(°С)
Pmin
(гПа)
dP
(гПа)
Po
(мм)
O2
(г/м3)
Тmin Tmax R s Состояние
почвы
21 17.07.17 тихо ()   4000 м  дымка  4/0 верхняя 
[Ci fib]
+8.3 +8 98 +8  1011.8  -0.8  729  283           
00 18.07.17 тихо ()   4000 м  дымка  8/0 верхняя 
[Cs]
+11.5 +11.2 98 +15  1010.9  -0.4  728  279  +7.6        влажная 
03 18.07.17 350 (С) 20000 м    10/5 600 м кучево-дожд., верхняя 
[Cb cap|Cs]
+17.1 +13.7 80 +26  1009.5  -0.5  728  273           
06 18.07.17 тихо ()   4000 м  слаб. ливневой дождь  10/10 870 м кучево-дожд. 
[Cb cap]
+18.5 +15.5 83 +29  1009.4  0.1  728  271           
09 18.07.17 280 (З) 20000 м  {ливн. осадки}  9/6 600 м кучево-дожд., верхняя 
[Cb cap|Ci fib]
+21.1 +14.1 64 +29  1008.7  -0.4  728  269           
12 18.07.17 140 (ЮВ) 20000 м  {ливн. осадки}  8/4 600 м кучево-дожд., верхняя 
[Cb cap|Ci fib]
+21 +13.7 63 +28  1008.2  -0.4  727  269    +22.1  0.4     
15 18.07.17 040 (СВ) 20000 м    6/6 600 м кучево-дожд. 
[Cb cap]
+14.1 +13.6 97 +22  1010  0.8  728  276           
18 18.07.17 тихо ()   4000 м  дымка  ясно 
+11.2 +10.7 97 +14  1009.8  -0.7  728  280           
21 18.07.17 тихо ()   0500 м  туман  ясно 
+8.9 +8.6 98 +9  1010  -0.1  727  282           
00 19.07.17 тихо ()   0500 м  туман  ясно 
+11.7 +11.3 97 +15  1009.7  0.2  728  279  +8.9        влажная 
03 19.07.17 050 (СВ) 20000 м  {туман}  8/8 870 м кучево-дожд., верхняя 
[Cb cap|Ci fib]
+18.9 +15.4 80 +30  1008.1  -0.6  727  271           
06 19.07.17 360 (С) 4000 м  гроза, ливневой дождь  10/10 600 м кучево-дожд. 
[Cb cap]
+15.6 +13.6 88 +24  1008.1  -0.6  727  274           
09 19.07.17 170 (Ю) 20000 м  {гроза, ливн. осадки}  9/9 870 м кучево-дожд. 
[Cb cap]
+19.4 +16 81 +31  1006.8  -0.6  726  270           
12 19.07.17 190 (Ю) 20000 м  {гроза, ливн. осадки}  10/5 600 м кучево-дожд., средняя, верхняя 
[Cb cap|Ac lent|Cs]
+19.9 +14 69 +29  1005.3  -1.4  725  269    +21.8     
15 19.07.17 тихо ()   4000 м  слаб. ливневой дождь  10/10 840 м кучево-дожд. 
[Cb cap]
+14.5 +13.9 96 +22  1006.8  0.8  726  275           
18 19.07.17 360 (С) 4000 м  дымка{ливн. осадки}  4/4 1000 м 
[Sc]
+12.7 +12.3 97 +19  1006.1  -1  725  277           
21 19.07.17 тихо ()   20000 м    10/10 870 м кучево-дожд. 
[Cb cap]
+12 +11.6 97 +16  1007.2  726  278           
00 20.07.17 тихо ()   20000 м  {ливн. осадки}  10/10 870 м кучево-дожд. 
[Cb cap]
+14.2 +13.8 97 +22  1007.3  0.3  726  275  +11.6      влажная 
03 20.07.17 тихо ()   20000 м    8/5 600 м кучево-дожд., верхняя 
[Cb cap|Cc]
+18.5 +14.5 78 +27  1006.8  0.2  726  271           
06 20.07.17 080 (В) 20000 м  гроза без осадков{ливн. осадки}  10/10 870 м кучево-дожд. 
[Cb cap]
+16.6 +14.6 88 +27  1007.3  0.2  726  273           
09 20.07.17 110 (В) 4000 м  слаб. ливневой дождь{гроза}  10/10 870 м кучево-дожд. 
[Cb cap]
+17 +16.1 94 +30  1007.5  0.3  727  272           
12 20.07.17 350 (С) 20000 м  гроза без осадков{ливн. осадки}  10/10 840 м кучево-дожд. 
[Cb cap]
+17.7 +15.5 87 +29  1008.1  0.7  727  272    +20.5     
18 20.07.17 тихо ()   20000 м  {гроза, ливн. осадки}  10/10 600 м кучево-дожд. 
[Cb cap]
+13 +12.6 97 +18  1010.3  0.4  728  278           
21 20.07.17 тихо ()   4000 м  дымка  10/10 600 м кучево-дожд. 
[Cb cap]
+12.5 +12.1 97 +17  1010.5  0.1  728  278           
00 21.07.17 250 (З) 26000 м    10/10 870 м кучево-дожд. 
[Cb cap]
+14.1 +13.7 97 +22  1011.1  0.9  729  276  +12.3      влажная 
Время (UTC), дата Ветер
(°,м/с) 
Видим.   Явления Облачность Т
(°С)
Тd
(°С)
f(%) Тe
(°С)
Pmin
(гПа)
dP
(гПа)
Po
(мм)
O2
(г/м3)
Тmin Tmax R s Состояние
почвы

Для получения пояснительной информации подведите курсор к названию столбца.

ПОГОДА Агинское - архив

Всё, что Вы хотите узнать о погоде Агинское - удобно и подробно!

Выберите нужную дату (начиная с 1 января 2015* года) и нажмите кнопку "Найти".
Будут отображены архивные сводки погоды по пункту Агинское, начиная с указанной даты.


Отображать данные в формате CSV (для использования в таблицах Excel)


Внимание! Наш архив погоды предназначен исключительно для личного некоммерческого использования в познавательных целях. Если Вам необходимы официальные справки о состоянии погоды (для производственных, юридических, коммерческих и т.п. целей), обращайтесь в органы Росгидромета.

*Примечание: данная дата относится к архиву по метеостанциям СССР (Россия, СНГ, Балтия).
Архив по метеостанциям Зарубежной Европы и Азии (кроме Китая) хранится 10 дней, по другим регионам земного шара (Китай, Африка, Америка, Австралия, Океания) - 1 день.

Агинское - район местоположения метеостанции


Название, широта, долгота, высота метеостанции:
Агинское 55.2°ш. 94.9°д. 337 м над ур. моря [Российская Федерация]

Дополнительная информация

В oтличие oт бoльшинства пoгoдных сайтoв мы публикуем пoдрoбную метеoинфoрмацию в детальнoм прoфессиoнальнoм фoрмате.

Характеристики температуры и влажнoсти вoздуха измеряются на высoте 2 м в тени вдали oт зданий и деревьев.
Скoрoсть ветра измеряется на высoте 10 м (на урoвне рoста челoвека скoрoсть ветра ниже в 1.5-2 раза). Если метеoстанция нахoдится в гoрoде или в лесу, тo скoрoсть ветра занижена на 2-4 м/с пo сравнению с oткрытым местoм. Скoрoсть ветра над акватoриями крупных рек и oзёр, а также на вершинах хoлмoв на 2-5 м/с выше, чем в oбычных услoвиях.
Атмoсфернoе давление в разных тoчках местнoсти мoжет значительнo oтличаться oт давления на метеoстанции, в зависимoсти oт услoвий рельефа (при пoдъёме на 10 м давление пoнижается примернo на 1 мм рт.ст.).